Regional Weather Roundup
Issued by NWS

Home | Current Version | Previous Version | Graphics & Text | Print | Product List | Glossary On
Versions: 1 2 3 4 5 6 7 8 9 10 11 12 13 14 15 16 17 18 19 20 21 22 23 24 25 26 27 28 29 30 31 32 33 34 35 36 37 38 39 40 41 42 43 44 45 46 47 48 49 50
000
ASUS43 KLOT 011606
RWRIL

ILLINOIS REGIONAL WEATHER ROUNDUP
NATIONAL WEATHER SERVICE CHICAGO/ROMEOVILLE IL
1100 AM CDT WED OCT 01 2014

NOTE: "FAIR" INDICATES FEW OR NO CLOUDS BELOW 12,000 FEET WITH NO
SIGNIFICANT WEATHER AND/OR OBSTRUCTIONS TO VISIBILITY.

* THESE STATIONS ARE NOT UNDER NWS QUALITY CONTROL. THEY ALSO MAY NOT
  REPORT WEATHER SUCH AS PRECIPITATION OR FOG.

ILZ001-002-007-009-015-016-024-011700-
NORTHWEST ILLINOIS

CITY           SKY/WX    TMP DP  RH WIND       PRES   REMARKS
MOLINE         NOT AVBL
SAVANNA*       PTSUNNY   63  50  62 SE10      29.93F
$$

ILZ003-004-008-010-011-017-018-011700-
NORTH CENTRAL ILLINOIS

CITY           SKY/WX    TMP DP  RH WIND       PRES   REMARKS
ROCKFORD       MOSUNNY   63  49  60 S14       29.99F
FREEPORT*      MOSUNNY   61  50  67 SE12G17   29.98F
ROCHELLE*      SUNNY     63  49  61 SE10      29.98F
DE KALB*       MOSUNNY   60  49  66 SE9G16    30.00F
PERU*          SUNNY     64  51  64 SE8       29.97F
$$

ILZ005-006-012>014-019>023-011700-
NORTHEAST ILLINOIS

CITY           SKY/WX    TMP DP  RH WIND       PRES   REMARKS
CHICAGO-OHARE  MOSUNNY   61  47  59 SE10      30.01F
CHICAGO-MIDWAY MOSUNNY   62  49  62 VRB7      30.02S
AURORA         SUNNY     63  49  60 SE13      30.00F
LANSING*       SUNNY     61  51  70 SE7       30.03F
JOLIET*        SUNNY     61  49  64 E9        30.00F
WAUKEGAN       MOSUNNY   59  49  69 SE12      30.01
DUPAGE AIRPORT SUNNY     62  48  60 SE10      30.00F
KANKAKEE*      SUNNY     63  52  68 E9        30.02S
WHEELING       SUNNY     63  47  55 SE8       30.02F
MORRIS*        SUNNY     64  52  66 SE8       29.98F
ROMEOVILLE*    SUNNY     62  49  62 S9        30.01F
$$

LMZ740>746-011700-
SOUTHERN LAKE MICHIGAN

STATION/POSITION SKY/WX   TEMP    WIND        PRES    VSBY  WAVE
                          AIR SEA DIR/SP/G                  HT/PER
                          (F)     (DEG/KT/KT) (MB)    (MI)  (FT/S)
SOUTHERN BUOY              57 61  150/ 10/ 12 1017.6S         1/ 3
WAUKEGAN HARBOR            58     150/ 14/ 17   N/A
HARRISON CRIB              56     150/ 12/ 16   N/A
BURNHAM HARBOR             60     110/  9/ 12   N/A
CALUMET HARBOR             60     110/  6/  9 1015.6S
MICHIGAN CITY              56     120/  9/ 11   N/A
MICHIGAN CITY 6N           59 64  140/ 10/ 12   N/A           1/ 2
ST. JOSEPH                 58 62  120/  8/ 12   N/A           1/ 2
$$

ILZ025>027-034>036-040-047-049-050-058-095>099-011700-
WEST-CENTRAL ILLINOIS

CITY           SKY/WX    TMP DP  RH WIND       PRES   REMARKS
QUINCY         CLOUDY    67  58  72 W12       29.93R
GALESBURG*     CLOUDY    65  56  72 SE7       29.93S
MACOMB*        CLOUDY    69  56  62 SE9       29.94S
JACKSONVILLE*  MOSUNNY   76  60  58 S7        29.93S
PITTSFIELD*    CLOUDY    74  59  59 SE10      29.91F
$$

ILZ028>032-037-038-041>044-048-051>054-059>061-011700-
CENTRAL ILLINOIS

CITY           SKY/WX    TMP DP  RH WIND       PRES   REMARKS
PONTIAC        SUNNY     70  54  56 SE6       29.97F
DECATUR        SUNNY     72  60  66 S12       29.96F
PEORIA         MOSUNNY   69  56  62 SE9       29.95S
LACON*         MOSUNNY   66  53  63 SE7       29.94F
LINCOLN*       SUNNY     74  59  59 S9        29.92F
SPRINGFIELD    SUNNY     72  59  63 S7        29.94S
TAYLORVILLE    SUNNY     73  59  60 S8        29.95S
$$

ILZ033-039-045-046-055>057-062-063-011700-
EAST-CENTRAL ILLINOIS

CITY           SKY/WX    TMP DP  RH WIND       PRES   REMARKS
CHAMPAIGN      MOSUNNY   70  56  61 VRB6      29.98F
DANVILLE*      SUNNY     66  54  64 E6        29.98S
RANTOUL*       SUNNY     70  53  56 SE8       29.99F
MATTOON        SUNNY     71  59  65 SE9       29.96F
PARIS*         SUNNY     71  58  62 S6        30.00S
$$

ILZ079-100>102-011700-
SOUTHWEST ILLINOIS

CITY           SKY/WX    TMP DP  RH WIND       PRES   REMARKS
ALTON          SUNNY     75  59  57 SE9       29.93S
BELLEVILLE     SUNNY     77  63  63 VRB5      29.92F
CAHOKIA*       MOSUNNY   78  60  53 S6        29.91F
SPARTA*        SUNNY     77  61  56 S7        29.94S
$$

ILZ064>066-069>071-074>076-080>082-084>086-088>090-092>094-011700-
SOUTH-CENTRAL ILLINOIS

CITY           SKY/WX    TMP DP  RH WIND       PRES   REMARKS
CARBONDALE     SUNNY     79  60  52 S9        29.94F HX  80
CAIRO*         SUNNY     80  62  54 S6        29.95S HX  81
EFFINGHAM*     SUNNY     73  57  59 SE8       29.96F
MARION         MOSUNNY   79  61  53 S9        29.96F HX  80
CENTRALIA*     SUNNY     77  58  52 SE8       29.94F
SALEM*         SUNNY     75  64  68 SE6       29.95F
METROPOLIS*    SUNNY     80  62  54 CALM      29.95F HX  81
$$

ILZ067-068-072-073-078-083-087-091-011700-
SOUTHEAST ILLINOIS

CITY           SKY/WX    TMP DP  RH WIND       PRES   REMARKS
LAWRENCEVILLE  MOSUNNY   73  61  65 SE6       29.98F
FLORA*         SUNNY     73  60  63 SE5       29.96F
FAIRFIELD*     SUNNY     75  63  64 S6        29.96S
HARRISBURG*    SUNNY     78  58  50 S8        29.96F
ROBINSON*      SUNNY     73  62  69 SE3       30.00F
CARMI*         SUNNY     78  62  57 SE8       29.96F HX  80
$$

ABBREVIATIONS USED IN REMARKS
   TC - TEMPERATURE IN CELSIUS
  WCI - WIND CHILL INDEX
   HX - HEAT INDEX
  VSB - VISIBILITY
$$




USA.gov is the U.S. government's official web portal to all federal, state and local government web resources and services.